Location: Foligno
(42.9600°N, 12.7050°E)
Time: 11:25:52
(UTC+02:00)

ISS - Pass Details

Date: 11 May 2021
Orbit: 417 x 422 km, 51.6° (Epoch: 15 May)

Event Time Altitude Azimuth Distance (km) Brightness Sun altitude
Exits shadow 03:37:17 - 305° (NW) 2,078 -0.3 -19.9°
Reaches altitude 10° 03:38:58 10° 319° (NW) 1,505 -0.8 -19.7°
Maximum altitude 03:41:34 20° 9° (N) 1,037 -1.1 -19.4°
Drops below altitude 10° 03:44:09 10° 59° (ENE) 1,505 0.1 -19.1°
Sets 03:46:38 0° 77° (ENE) 2,369 0.9 -18.8°
